Time,TemperatureF,DewpointF,PressureIn,WindDirection,WindDirectionDegrees,WindSpeedMPH,WindSpeedGustMPH,Humidity,HourlyPrecipIn,Conditions,Clouds,dailyrainin,SoftwareType,DateUTC
2013-07-29 00:01:00,74.4,72.2,30.00,South,172,6.0,7.0,93,0.00,,---,0.02,VWS V14.01,2013-07-29 04:01:00,
2013-07-29 00:02:00,74.4,72.2,30.00,South,188,2.0,5.0,93,0.00,,---,0.00,VWS V14.01,2013-07-29 04:02:00,
2013-07-29 00:07:00,74.2,72.1,30.00,SE,143,1.0,5.0,93,0.00,,---,0.00,VWS V14.01,2013-07-29 04:07:00,
2013-07-29 00:13:00,74.1,71.9,30.00,South,190,3.0,5.0,93,0.00,,---,0.00,VWS V14.01,2013-07-29 04:13:00,
2013-07-29 00:17:00,74.0,71.8,30.01,SSE,168,4.0,5.0,93,0.00,,---,0.00,VWS V14.01,2013-07-29 04:17:00,
2013-07-29 00:23:00,73.9,71.8,30.01,SE,141,3.0,4.0,93,0.00,,---,0.00,VWS V14.01,2013-07-29 04:23:00,
2013-07-29 00:28:00,73.9,71.8,30.01,SSE,148,2.0,5.0,93,0.00,,---,0.00,VWS V14.01,2013-07-29 04:28:00,
2013-07-29 00:33:00,73.8,71.7,30.01,SSE,155,3.0,4.0,93,0.00,,---,0.00,VWS V14.01,2013-07-29 04:33:00,
2013-07-29 00:38:00,73.8,71.7,30.01,SSE,158,3.0,5.0,93,0.00,,---,0.00,VWS V14.01,2013-07-29 04:38:00,
2013-07-29 00:43:00,73.7,71.6,30.01,SSE,155,3.0,4.0,93,0.00,,---,0.00,VWS V14.01,2013-07-29 04:43:00,
2013-07-29 00:48:00,73.6,71.8,30.01,SE,143,3.0,3.0,94,0.00,,---,0.00,VWS V14.01,2013-07-29 04:48:00,
2013-07-29 00:53:00,73.6,71.8,30.01,SSE,156,2.0,4.0,94,0.00,,---,0.00,VWS V14.01,2013-07-29 04:53:00,
2013-07-29 00:58:00,73.6,71.8,30.01,SE,145,3.0,4.0,94,0.00,,---,0.00,VWS V14.01,2013-07-29 04:58:00,
2013-07-29 01:03:00,73.5,71.7,30.01,SE,142,3.0,4.0,94,0.00,,---,0.00,VWS V14.01,2013-07-29 05:03:00,
2013-07-29 01:08:00,73.5,71.7,30.01,SSE,155,3.0,5.0,94,0.00,,---,0.00,VWS V14.01,2013-07-29 05:08:00,
2013-07-29 01:13:00,73.5,71.7,30.01,SSE,152,3.0,4.0,94,0.00,,---,0.00,VWS V14.01,2013-07-29 05:13:00,
2013-07-29 01:18:00,73.5,71.7,30.01,SSE,164,3.0,4.0,94,0.00,,---,0.00,VWS V14.01,2013-07-29 05:18:00,
2013-07-29 01:23:00,73.5,71.7,30.01,SSE,159,2.0,3.0,94,0.00,,---,0.00,VWS V14.01,2013-07-29 05:23:00,
2013-07-29 01:28:00,73.5,71.7,30.01,SSE,156,1.0,3.0,94,0.00,,---,0.00,VWS V14.01,2013-07-29 05:28:00,
2013-07-29 01:33:00,73.5,71.7,30.01,SE,141,2.0,3.0,94,0.00,,---,0.00,VWS V14.01,2013-07-29 05:33:00,
2013-07-29 01:38:00,73.4,71.6,30.01,SSE,154,0.0,2.0,94,0.00,,---,0.00,VWS V14.01,2013-07-29 05:38:00,
2013-07-29 01:43:00,73.4,71.6,30.01,SSW,200,0.0,2.0,94,0.00,,---,0.00,VWS V14.01,2013-07-29 05:43:00,
2013-07-29 01:48:00,73.5,71.7,30.01,SW,231,3.0,3.0,94,0.00,,---,0.00,VWS V14.01,2013-07-29 05:48:00,
2013-07-29 01:53:00,73.6,71.5,30.01,South,188,0.0,3.0,93,0.00,,---,0.00,VWS V14.01,2013-07-29 05:53:00,
2013-07-29 01:58:00,73.6,71.5,30.01,SW,214,1.0,2.0,93,0.00,,---,0.00,VWS V14.01,2013-07-29 05:58:00,
2013-07-29 02:03:00,73.6,71.5,30.01,West,271,1.0,2.0,93,0.00,,---,0.00,VWS V14.01,2013-07-29 06:03:00,
2013-07-29 02:08:00,73.5,71.4,30.00,West,267,0.0,0.0,93,0.00,,---,0.00,VWS V14.01,2013-07-29 06:08:00,
2013-07-29 02:13:00,73.5,71.7,30.00,SW,231,1.0,1.0,94,0.00,,---,0.00,VWS V14.01,2013-07-29 06:13:00,
2013-07-29 02:18:00,73.4,71.6,30.00,West,263,0.0,2.0,94,0.00,,---,0.00,VWS V14.01,2013-07-29 06:18:00,
2013-07-29 02:23:00,73.5,71.7,30.00,West,277,0.0,1.0,94,0.00,,---,0.00,VWS V14.01,2013-07-29 06:23:00,
2013-07-29 02:28:00,73.5,71.7,30.01,WSW,252,0.0,3.0,94,0.00,,---,0.00,VWS V14.01,2013-07-29 06:28:00,
2013-07-29 02:33:00,73.5,71.7,30.00,WSW,239,0.0,1.0,94,0.00,,---,0.00,VWS V14.01,2013-07-29 06:33:00,
2013-07-29 02:38:00,73.5,71.7,30.00,WSW,243,0.0,0.0,94,0.00,,---,0.00,VWS V14.01,2013-07-29 06:38:00,
2013-07-29 02:43:00,73.5,71.7,30.00,SW,225,0.0,2.0,94,0.00,,---,0.00,VWS V14.01,2013-07-29 06:43:00,
2013-07-29 02:48:00,73.5,71.7,30.00,SSW,198,1.0,1.0,94,0.00,,---,0.00,VWS V14.01,2013-07-29 06:48:00,
2013-07-29 02:53:00,73.3,71.5,30.00,SSE,154,2.0,2.0,94,0.00,,---,0.00,VWS V14.01,2013-07-29 06:53:00,
2013-07-29 02:58:00,73.1,71.3,30.01,South,186,3.0,4.0,94,0.00,,---,0.00,VWS V14.01,2013-07-29 06:58:00,
2013-07-29 03:03:00,72.9,71.4,30.01,SSW,195,1.0,3.0,95,0.00,,---,0.00,VWS V14.01,2013-07-29 07:03:00,
2013-07-29 03:08:00,72.9,71.4,30.01,SSE,165,1.0,3.0,95,0.00,,---,0.00,VWS V14.01,2013-07-29 07:08:00,
2013-07-29 03:13:00,72.8,71.3,30.00,SSW,212,1.0,2.0,95,0.00,,---,0.00,VWS V14.01,2013-07-29 07:13:00,
2013-07-29 03:18:00,72.8,71.3,30.00,WSW,247,2.0,3.0,95,0.00,,---,0.00,VWS V14.01,2013-07-29 07:18:00,
2013-07-29 03:23:00,72.9,71.4,30.00,SW,214,3.0,5.0,95,0.00,,---,0.00,VWS V14.01,2013-07-29 07:23:00,
2013-07-29 03:28:00,73.0,71.5,30.00,SSW,193,2.0,5.0,95,0.00,,---,0.00,VWS V14.01,2013-07-29 07:28:00,
2013-07-29 03:33:00,73.0,71.2,30.00,SSW,207,1.0,5.0,94,0.00,,---,0.00,VWS V14.01,2013-07-29 07:33:00,
2013-07-29 03:38:00,72.9,71.1,30.00,South,184,2.0,3.0,94,0.00,,---,0.00,VWS V14.01,2013-07-29 07:38:00,
2013-07-29 03:43:00,72.7,70.9,30.00,South,173,1.0,2.0,94,0.00,,---,0.00,VWS V14.01,2013-07-29 07:43:00,
2013-07-29 03:48:00,72.6,71.1,30.00,SSW,194,0.0,2.0,95,0.00,,---,0.00,VWS V14.01,2013-07-29 07:48:00,
2013-07-29 03:53:00,72.6,71.1,30.00,SSW,208,1.0,1.0,95,0.00,,---,0.00,VWS V14.01,2013-07-29 07:53:00,
2013-07-29 03:58:00,72.4,70.9,30.00,WSW,246,1.0,1.0,95,0.00,,---,0.00,VWS V14.01,2013-07-29 07:58:00,
2013-07-29 03:59:00,72.4,70.9,30.00,WSW,245,1.0,1.0,95,0.00,,---,0.00,VWS V14.01,2013-07-29 07:59:00,
2013-07-29 04:04:00,72.4,70.9,30.00,SW,232,0.0,1.0,95,0.00,,---,0.00,VWS V14.01,2013-07-29 08:04:00,
2013-07-29 04:09:00,72.4,70.9,30.00,SW,232,0.0,0.0,95,0.00,,---,0.00,VWS V14.01,2013-07-29 08:09:00,
2013-07-29 04:14:00,72.3,70.8,30.01,SW,232,0.0,0.0,95,0.00,,---,0.00,VWS V14.01,2013-07-29 08:14:00,
2013-07-29 04:19:00,72.3,70.8,30.01,SW,232,0.0,0.0,95,0.00,,---,0.00,VWS V14.01,2013-07-29 08:19:00,
2013-07-29 04:24:00,72.2,70.7,30.01,SSW,198,1.0,1.0,95,0.00,,---,0.00,VWS V14.01,2013-07-29 08:24:00,
2013-07-29 04:29:00,72.2,70.7,30.01,SSE,149,0.0,1.0,95,0.00,,---,0.00,VWS V14.01,2013-07-29 08:29:00,
2013-07-29 04:34:00,72.2,70.7,30.01,SSE,159,1.0,2.0,95,0.00,,---,0.00,VWS V14.01,2013-07-29 08:34:00,
2013-07-29 04:39:00,72.2,71.0,30.02,SSW,197,1.0,2.0,96,0.00,,---,0.00,VWS V14.01,2013-07-29 08:39:00,
2013-07-29 04:44:00,72.2,71.0,30.02,SW,224,2.0,2.0,96,0.00,,---,0.00,VWS V14.01,2013-07-29 08:44:00,
2013-07-29 04:49:00,72.2,71.0,30.02,WSW,252,2.0,3.0,96,0.00,,---,0.00,VWS V14.01,2013-07-29 08:49:00,
2013-07-29 04:54:00,72.3,71.1,30.02,WSW,239,1.0,3.0,96,0.00,,---,0.00,VWS V14.01,2013-07-29 08:54:00,
2013-07-29 04:59:00,72.3,70.8,30.03,SW,217,1.0,3.0,95,0.00,,---,0.00,VWS V14.01,2013-07-29 08:59:00,
2013-07-29 05:04:00,72.2,70.7,30.02,SSE,167,1.0,2.0,95,0.00,,---,0.00,VWS V14.01,2013-07-29 09:04:00,
2013-07-29 05:09:00,72.1,70.6,30.02,SSE,167,1.0,2.0,95,0.00,,---,0.00,VWS V14.01,2013-07-29 09:09:00,
2013-07-29 05:14:00,72.1,70.9,30.02,South,173,1.0,1.0,96,0.00,,---,0.00,VWS V14.01,2013-07-29 09:14:00,
2013-07-29 05:19:00,72.1,70.9,30.02,South,173,0.0,1.0,96,0.00,,---,0.00,VWS V14.01,2013-07-29 09:19:00,
2013-07-29 05:24:00,72.0,70.8,30.03,South,173,0.0,0.0,96,0.00,,---,0.00,VWS V14.01,2013-07-29 09:24:00,
2013-07-29 05:29:00,72.1,70.9,30.03,SSW,193,0.0,0.0,96,0.00,,---,0.00,VWS V14.01,2013-07-29 09:29:00,
2013-07-29 05:34:00,72.0,70.8,30.03,SSW,200,0.0,0.0,96,0.00,,---,0.00,VWS V14.01,2013-07-29 09:34:00,
2013-07-29 05:39:00,71.9,70.7,30.03,WNW,284,0.0,1.0,96,0.00,,---,0.00,VWS V14.01,2013-07-29 09:39:00,
2013-07-29 05:44:00,71.9,70.7,30.03,WNW,285,0.0,1.0,96,0.00,,---,0.00,VWS V14.01,2013-07-29 09:44:00,
2013-07-29 05:49:00,71.9,70.7,30.03,WNW,285,0.0,1.0,96,0.00,,---,0.00,VWS V14.01,2013-07-29 09:49:00,
2013-07-29 05:54:00,71.8,70.6,30.03,WNW,285,0.0,1.0,96,0.00,,---,0.00,VWS V14.01,2013-07-29 09:54:00,
2013-07-29 05:59:00,71.8,70.6,30.03,WNW,285,0.0,1.0,96,0.00,,---,0.00,VWS V14.01,2013-07-29 09:59:00,
2013-07-29 06:04:00,71.7,70.5,30.04,WNW,285,0.0,0.0,96,0.00,,---,0.00,VWS V14.01,2013-07-29 10:04:00,
2013-07-29 06:09:00,71.7,70.5,30.04,WNW,285,0.0,0.0,96,0.00,,---,0.00,VWS V14.01,2013-07-29 10:09:00,
2013-07-29 06:14:00,71.6,70.4,30.04,NW,316,0.0,2.0,96,0.00,,---,0.00,VWS V14.01,2013-07-29 10:14:00,
2013-07-29 06:19:00,71.6,70.4,30.04,NNW,340,0.0,2.0,96,0.00,,---,0.00,VWS V14.01,2013-07-29 10:19:00,
2013-07-29 06:24:00,71.5,70.3,30.04,NNW,340,0.0,1.0,96,0.00,,---,0.00,VWS V14.01,2013-07-29 10:24:00,
2013-07-29 06:29:00,71.4,70.2,30.04,NNW,330,0.0,1.0,96,0.00,,---,0.00,VWS V14.01,2013-07-29 10:29:00,
2013-07-29 06:35:00,71.2,70.0,30.04,NNW,330,1.0,1.0,96,0.00,,---,0.00,VWS V14.01,2013-07-29 10:35:00,
2013-07-29 06:40:00,71.2,70.0,30.05,NNW,330,0.0,0.0,96,0.00,,---,0.00,VWS V14.01,2013-07-29 10:40:00,
2013-07-29 06:45:00,71.1,69.9,30.05,NNW,339,0.0,1.0,96,0.00,,---,0.00,VWS V14.01,2013-07-29 10:45:00,
2013-07-29 06:50:00,71.0,69.8,30.05,NNW,333,0.0,1.0,96,0.00,,---,0.00,VWS V14.01,2013-07-29 10:50:00,
2013-07-29 06:55:00,71.0,70.1,30.05,NNW,333,0.0,0.0,97,0.00,,---,0.00,VWS V14.01,2013-07-29 10:55:00,
2013-07-29 07:00:00,70.9,70.0,30.05,NNW,333,0.0,0.0,97,0.00,,---,0.00,VWS V14.01,2013-07-29 11:00:00,
2013-07-29 07:05:00,70.9,70.0,30.05,NNW,333,0.0,0.0,97,0.00,,---,0.00,VWS V14.01,2013-07-29 11:05:00,
2013-07-29 07:11:00,70.9,70.0,30.05,NNW,333,0.0,1.0,97,0.00,,---,0.00,VWS V14.01,2013-07-29 11:11:00,
2013-07-29 07:16:00,71.0,70.1,30.05,NW,322,0.0,2.0,97,0.00,,---,0.00,VWS V14.01,2013-07-29 11:16:00,
2013-07-29 07:21:00,71.1,70.2,30.06,NW,322,0.0,0.0,97,0.00,,---,0.00,VWS V14.01,2013-07-29 11:21:00,
2013-07-29 07:26:00,71.4,70.5,30.06,NW,325,0.0,1.0,97,0.00,,---,0.00,VWS V14.01,2013-07-29 11:26:00,
2013-07-29 07:31:00,71.6,70.7,30.06,NNW,331,2.0,3.0,97,0.00,,---,0.00,VWS V14.01,2013-07-29 11:31:00,
2013-07-29 07:36:00,71.7,70.5,30.06,NW,316,1.0,1.0,96,0.00,,---,0.00,VWS V14.01,2013-07-29 11:36:00,
2013-07-29 07:41:00,71.8,70.6,30.06,NW,306,1.0,2.0,96,0.00,,---,0.00,VWS V14.01,2013-07-29 11:41:00,
2013-07-29 07:46:00,72.0,70.8,30.06,NW,318,3.0,3.0,96,0.00,,---,0.00,VWS V14.01,2013-07-29 11:46:00,
2013-07-29 07:52:00,72.2,71.0,30.07,NW,317,0.0,2.0,96,0.00,,---,0.00,VWS V14.01,2013-07-29 11:52:00,
2013-07-29 07:57:00,72.4,71.2,30.07,West,275,0.0,1.0,96,0.00,,---,0.00,VWS V14.01,2013-07-29 11:57:00,
2013-07-29 08:02:00,72.5,71.3,30.07,NNW,337,0.0,1.0,96,0.00,,---,0.00,VWS V14.01,2013-07-29 12:02:00,
2013-07-29 08:07:00,72.8,71.6,30.07,NNW,333,1.0,2.0,96,0.00,,---,0.00,VWS V14.01,2013-07-29 12:07:00,
2013-07-29 08:12:00,73.1,71.6,30.07,NNW,335,1.0,4.0,95,0.00,,---,0.00,VWS V14.01,2013-07-29 12:12:00,
2013-07-29 08:18:00,73.5,72.0,30.07,NW,321,3.0,5.0,95,0.00,,---,0.00,VWS V14.01,2013-07-29 12:18:00,
2013-07-29 08:23:00,73.8,71.7,30.07,NNE,25,1.0,4.0,93,0.00,,---,0.00,VWS V14.01,2013-07-29 12:23:00,
2013-07-29 08:28:00,74.4,72.2,30.07,ENE,67,3.0,4.0,93,0.00,,---,0.00,VWS V14.01,2013-07-29 12:28:00,
2013-07-29 08:33:00,74.7,71.2,30.07,NE,48,4.0,5.0,89,0.00,,---,0.00,VWS V14.01,2013-07-29 12:33:00,
2013-07-29 08:38:00,75.0,71.2,30.08,NW,309,1.0,5.0,88,0.00,,---,0.00,VWS V14.01,2013-07-29 12:38:00,
2013-07-29 08:44:00,75.6,71.1,30.08,North,352,0.0,5.0,86,0.00,,---,0.00,VWS V14.01,2013-07-29 12:44:00,
2013-07-29 08:49:00,75.7,70.9,30.08,NE,44,0.0,6.0,85,0.00,,---,0.00,VWS V14.01,2013-07-29 12:49:00,
2013-07-29 08:54:00,75.7,71.2,30.08,North,8,0.0,7.0,86,0.00,,---,0.00,VWS V14.01,2013-07-29 12:54:00,
2013-07-29 08:59:00,75.7,70.5,30.08,NE,43,2.0,6.0,84,0.00,,---,0.00,VWS V14.01,2013-07-29 12:59:00,
2013-07-29 09:04:00,75.5,70.7,30.08,NNE,16,0.0,5.0,85,0.00,,---,0.00,VWS V14.01,2013-07-29 13:04:00,
2013-07-29 09:09:00,75.5,70.3,30.08,NE,53,3.0,4.0,84,0.00,,---,0.00,VWS V14.01,2013-07-29 13:09:00,
2013-07-29 09:14:00,75.4,70.6,30.08,NNE,19,0.0,4.0,85,0.00,,---,0.00,VWS V14.01,2013-07-29 13:14:00,
2013-07-29 09:19:00,75.4,70.6,30.08,NNW,337,0.0,3.0,85,0.00,,---,0.00,VWS V14.01,2013-07-29 13:19:00,
2013-07-29 09:25:00,75.5,70.7,30.08,NNW,330,3.0,4.0,85,0.00,,---,0.00,VWS V14.01,2013-07-29 13:25:00,
2013-07-29 09:30:00,75.9,71.1,30.09,WNW,290,1.0,2.0,85,0.00,,---,0.00,VWS V14.01,2013-07-29 13:30:00,
2013-07-29 09:35:00,76.3,71.1,30.09,NNW,342,1.0,4.0,84,0.00,,---,0.00,VWS V14.01,2013-07-29 13:35:00,
2013-07-29 09:40:00,76.7,71.5,30.09,NNW,336,3.0,4.0,84,0.00,,---,0.00,VWS V14.01,2013-07-29 13:40:00,
2013-07-29 09:45:00,76.9,71.0,30.09,North,352,1.0,6.0,82,0.00,,---,0.00,VWS V14.01,2013-07-29 13:45:00,
2013-07-29 09:50:00,77.1,71.2,30.09,North,8,0.0,4.0,82,0.00,,---,0.00,VWS V14.01,2013-07-29 13:50:00,
2013-07-29 09:55:00,77.9,72.0,30.09,NNW,346,3.0,5.0,82,0.00,,---,0.00,VWS V14.01,2013-07-29 13:55:00,
2013-07-29 10:00:00,78.1,71.8,30.09,NE,49,0.0,7.0,81,0.00,,---,0.00,VWS V14.01,2013-07-29 14:00:00,
2013-07-29 10:06:00,78.5,71.8,30.09,North,356,3.0,4.0,80,0.00,,---,0.00,VWS V14.01,2013-07-29 14:06:00,
2013-07-29 10:11:00,78.2,71.5,30.09,NE,43,0.0,7.0,80,0.00,,---,0.00,VWS V14.01,2013-07-29 14:11:00,
2013-07-29 10:16:00,77.9,70.9,30.09,ENE,60,3.0,4.0,79,0.00,,---,0.00,VWS V14.01,2013-07-29 14:16:00,
2013-07-29 10:21:00,77.5,70.8,30.09,NE,55,3.0,5.0,80,0.00,,---,0.00,VWS V14.01,2013-07-29 14:21:00,
2013-07-29 10:27:00,77.6,71.7,30.09,ENE,57,2.0,2.0,82,0.00,,---,0.00,VWS V14.01,2013-07-29 14:27:00,
2013-07-29 10:32:00,78.0,71.3,30.10,NE,44,4.0,5.0,80,0.00,,---,0.00,VWS V14.01,2013-07-29 14:32:00,
2013-07-29 10:37:00,78.2,71.5,30.10,NNE,32,4.0,4.0,80,0.00,,---,0.00,VWS V14.01,2013-07-29 14:37:00,
2013-07-29 10:42:00,78.3,72.0,30.10,NE,51,4.0,4.0,81,0.00,,---,0.00,VWS V14.01,2013-07-29 14:42:00,
2013-07-29 10:47:00,78.6,71.9,30.10,NE,37,2.0,2.0,80,0.00,,---,0.00,VWS V14.01,2013-07-29 14:47:00,
2013-07-29 10:52:00,78.7,71.3,30.10,North,1,5.0,6.0,78,0.00,,---,0.00,VWS V14.01,2013-07-29 14:52:00,
2013-07-29 10:58:00,78.6,71.2,30.10,NE,42,0.0,4.0,78,0.00,,---,0.00,VWS V14.01,2013-07-29 14:58:00,
2013-07-29 11:03:00,78.6,71.6,30.10,NNE,32,1.0,6.0,79,0.00,,---,0.00,VWS V14.01,2013-07-29 15:03:00,
2013-07-29 11:08:00,78.7,72.0,30.10,East,99,1.0,3.0,80,0.00,,---,0.00,VWS V14.01,2013-07-29 15:08:00,
2013-07-29 11:13:00,79.1,72.0,30.10,ENE,60,1.0,2.0,79,0.00,,---,0.00,VWS V14.01,2013-07-29 15:13:00,
2013-07-29 11:18:00,79.2,71.0,30.10,ENE,73,1.0,5.0,76,0.00,,---,0.00,VWS V14.01,2013-07-29 15:18:00,
2013-07-29 11:23:00,79.1,70.9,30.10,ESE,108,1.0,2.0,76,0.00,,---,0.00,VWS V14.01,2013-07-29 15:23:00,
2013-07-29 11:28:00,79.1,70.9,30.11,ENE,65,1.0,4.0,76,0.00,,---,0.00,VWS V14.01,2013-07-29 15:28:00,
2013-07-29 11:34:00,79.0,69.6,30.11,ENE,59,5.0,8.0,73,0.00,,---,0.00,VWS V14.01,2013-07-29 15:34:00,
2013-07-29 11:39:00,79.0,69.2,30.11,NE,50,2.0,6.0,72,0.00,,---,0.00,VWS V14.01,2013-07-29 15:39:00,
2013-07-29 11:44:00,79.1,69.3,30.11,ENE,77,2.0,5.0,72,0.00,,---,0.00,VWS V14.01,2013-07-29 15:44:00,
2013-07-29 11:49:00,79.2,69.4,30.11,ESE,120,0.0,2.0,72,0.00,,---,0.00,VWS V14.01,2013-07-29 15:49:00,
2013-07-29 11:54:00,79.7,70.3,30.11,ENE,73,1.0,4.0,73,0.00,,---,0.00,VWS V14.01,2013-07-29 15:54:00,
2013-07-29 11:59:00,80.0,68.9,30.11,ENE,65,2.0,5.0,69,0.00,,---,0.00,VWS V14.01,2013-07-29 15:59:00,
2013-07-29 12:04:00,79.7,69.5,30.10,ENE,63,1.0,6.0,71,0.00,,---,0.00,VWS V14.01,2013-07-29 16:04:00,
2013-07-29 12:09:00,79.8,69.6,30.11,East,85,5.0,6.0,71,0.00,,---,0.00,VWS V14.01,2013-07-29 16:09:00,
2013-07-29 12:15:00,80.1,70.7,30.11,NE,40,1.0,3.0,73,0.00,,---,0.00,VWS V14.01,2013-07-29 16:15:00,
2013-07-29 12:20:00,80.4,70.6,30.11,ENE,60,6.0,6.0,72,0.00,,---,0.00,VWS V14.01,2013-07-29 16:20:00,
2013-07-29 12:25:00,80.6,70.3,30.11,East,81,3.0,5.0,71,0.00,,---,0.00,VWS V14.01,2013-07-29 16:25:00,
2013-07-29 12:31:00,80.7,70.0,30.11,NE,36,2.0,8.0,70,0.00,,---,0.00,VWS V14.01,2013-07-29 16:31:00,
2013-07-29 12:36:00,81.5,71.6,30.11,ESE,107,3.0,3.0,72,0.00,,---,0.00,VWS V14.01,2013-07-29 16:36:00,
2013-07-29 12:41:00,82.0,71.3,30.11,North,1,0.0,4.0,70,0.00,,---,0.00,VWS V14.01,2013-07-29 16:41:00,
2013-07-29 12:47:00,82.5,70.4,30.11,East,92,1.0,3.0,67,0.00,,---,0.00,VWS V14.01,2013-07-29 16:47:00,
2013-07-29 12:52:00,82.7,71.1,30.11,East,99,2.0,3.0,68,0.00,,---,0.00,VWS V14.01,2013-07-29 16:52:00,
2013-07-29 12:58:00,82.7,70.2,30.11,ESE,115,0.0,5.0,66,0.00,,---,0.00,VWS V14.01,2013-07-29 16:58:00,
2013-07-29 13:03:00,82.6,70.1,30.10,ENE,67,0.0,1.0,66,0.00,,---,0.00,VWS V14.01,2013-07-29 17:03:00,
2013-07-29 13:08:00,83.0,70.0,30.10,NW,311,1.0,3.0,65,0.00,,---,0.00,VWS V14.01,2013-07-29 17:08:00,
2013-07-29 13:13:00,83.2,70.7,30.10,NE,42,1.0,3.0,66,0.00,,---,0.00,VWS V14.01,2013-07-29 17:13:00,
2013-07-29 13:18:00,83.0,70.5,30.10,NE,40,1.0,5.0,66,0.00,,---,0.00,VWS V14.01,2013-07-29 17:18:00,
2013-07-29 13:23:00,82.9,70.4,30.10,NNW,328,5.0,5.0,66,0.00,,---,0.00,VWS V14.01,2013-07-29 17:23:00,
2013-07-29 13:28:00,83.1,71.4,30.10,NNE,20,0.0,1.0,68,0.00,,---,0.00,VWS V14.01,2013-07-29 17:28:00,
2013-07-29 13:33:00,83.4,70.9,30.10,WNW,298,4.0,4.0,66,0.00,,---,0.00,VWS V14.01,2013-07-29 17:33:00,
2013-07-29 13:38:00,83.1,71.0,30.10,NW,319,1.0,3.0,67,0.00,,---,0.00,VWS V14.01,2013-07-29 17:38:00,
2013-07-29 13:43:00,83.1,71.0,30.10,NW,321,4.0,4.0,67,0.00,,---,0.00,VWS V14.01,2013-07-29 17:43:00,
2013-07-29 13:48:00,82.7,71.1,30.10,NW,325,0.0,4.0,68,0.00,,---,0.00,VWS V14.01,2013-07-29 17:48:00,
2013-07-29 13:53:00,82.3,71.1,30.10,NE,40,2.0,4.0,69,0.00,,---,0.00,VWS V14.01,2013-07-29 17:53:00,
2013-07-29 13:58:00,81.9,72.0,30.09,WNW,301,1.0,3.0,72,0.00,,---,0.00,VWS V14.01,2013-07-29 17:58:00,
2013-07-29 14:03:00,82.2,72.3,30.09,NNE,23,1.0,3.0,72,0.00,,---,0.00,VWS V14.01,2013-07-29 18:03:00,
2013-07-29 14:09:00,82.9,72.5,30.09,NE,49,1.0,4.0,71,0.00,,---,0.00,VWS V14.01,2013-07-29 18:09:00,
2013-07-29 14:14:00,83.0,72.2,30.09,East,86,1.0,3.0,70,0.00,,---,0.00,VWS V14.01,2013-07-29 18:14:00,
2013-07-29 14:19:00,83.5,72.7,30.08,NNE,32,1.0,3.0,70,0.00,,---,0.00,VWS V14.01,2013-07-29 18:19:00,
2013-07-29 14:24:00,83.5,72.7,30.08,NW,325,2.0,4.0,70,0.00,,---,0.00,VWS V14.01,2013-07-29 18:24:00,
2013-07-29 14:29:00,83.3,72.1,30.08,NW,318,1.0,3.0,69,0.00,,---,0.00,VWS V14.01,2013-07-29 18:29:00,
2013-07-29 14:34:00,83.5,70.1,30.08,SSE,159,0.0,3.0,64,0.00,,---,0.00,VWS V14.01,2013-07-29 18:34:00,
2013-07-29 14:39:00,83.9,70.9,30.08,North,359,1.0,3.0,65,0.00,,---,0.00,VWS V14.01,2013-07-29 18:39:00,
2013-07-29 14:44:00,83.9,71.3,30.08,NW,322,0.0,3.0,66,0.00,,---,0.00,VWS V14.01,2013-07-29 18:44:00,
2013-07-29 14:49:00,84.0,69.6,30.08,East,89,1.0,4.0,62,0.00,,---,0.00,VWS V14.01,2013-07-29 18:49:00,
2013-07-29 14:54:00,84.4,69.5,30.08,NW,321,1.0,3.0,61,0.00,,---,0.00,VWS V14.01,2013-07-29 18:54:00,
2013-07-29 14:59:00,84.5,69.1,30.07,NW,307,3.0,4.0,60,0.00,,---,0.00,VWS V14.01,2013-07-29 18:59:00,
2013-07-29 15:05:00,84.4,69.5,30.07,NNW,338,0.0,4.0,61,0.00,,---,0.00,VWS V14.01,2013-07-29 19:05:00,
2013-07-29 15:10:00,84.7,69.3,30.07,East,92,1.0,2.0,60,0.00,,---,0.00,VWS V14.01,2013-07-29 19:10:00,
2013-07-29 15:15:00,84.8,70.8,30.07,NE,36,1.0,5.0,63,0.00,,---,0.00,VWS V14.01,2013-07-29 19:15:00,
2013-07-29 15:20:00,84.7,70.7,30.07,NNW,332,0.0,7.0,63,0.00,,---,0.00,VWS V14.01,2013-07-29 19:20:00,
2013-07-29 15:26:00,84.5,70.5,30.06,NNW,348,3.0,6.0,63,0.00,,---,0.00,VWS V14.01,2013-07-29 19:26:00,
2013-07-29 15:31:00,84.0,69.6,30.06,NE,49,1.0,6.0,62,0.00,,---,0.00,VWS V14.01,2013-07-29 19:31:00,
2013-07-29 15:36:00,84.6,70.2,30.06,North,8,2.0,6.0,62,0.00,,---,0.00,VWS V14.01,2013-07-29 19:36:00,
2013-07-29 15:41:00,84.8,70.3,30.06,NNE,30,0.0,4.0,62,0.00,,---,0.00,VWS V14.01,2013-07-29 19:41:00,
2013-07-29 15:46:00,84.9,70.9,30.07,NW,315,3.0,7.0,63,0.00,,---,0.00,VWS V14.01,2013-07-29 19:46:00,
2013-07-29 15:51:00,84.8,71.3,30.07,NW,305,2.0,4.0,64,0.00,,---,0.00,VWS V14.01,2013-07-29 19:51:00,
2013-07-29 15:56:00,84.5,70.1,30.07,WNW,282,0.0,4.0,62,0.00,,---,0.00,VWS V14.01,2013-07-29 19:56:00,
2013-07-29 16:01:00,85.1,69.7,30.07,North,11,1.0,2.0,60,0.00,,---,0.00,VWS V14.01,2013-07-29 20:01:00,
2013-07-29 16:06:00,85.2,69.3,30.07,NW,321,3.0,3.0,59,0.00,,---,0.00,VWS V14.01,2013-07-29 20:06:00,
2013-07-29 16:11:00,85.1,69.7,30.07,NW,309,2.0,2.0,60,0.00,,---,0.00,VWS V14.01,2013-07-29 20:11:00,
2013-07-29 16:16:00,85.2,69.8,30.07,NE,53,0.0,2.0,60,0.00,,---,0.00,VWS V14.01,2013-07-29 20:16:00,
2013-07-29 16:21:00,84.8,68.9,30.07,North,354,0.0,0.0,59,0.00,,---,0.00,VWS V14.01,2013-07-29 20:21:00,
2013-07-29 16:27:00,84.6,68.7,30.07,North,355,0.0,0.0,59,0.00,,---,0.00,VWS V14.01,2013-07-29 20:27:00,
2013-07-29 16:32:00,85.2,70.2,30.07,North,356,0.0,0.0,61,0.00,,---,0.00,VWS V14.01,2013-07-29 20:32:00,
2013-07-29 16:37:00,85.6,69.6,30.07,North,355,0.0,1.0,59,0.00,,---,0.00,VWS V14.01,2013-07-29 20:37:00,
2013-07-29 16:42:00,85.7,70.7,30.07,NE,56,1.0,1.0,61,0.00,,---,0.00,VWS V14.01,2013-07-29 20:42:00,
2013-07-29 16:47:00,85.9,69.4,30.07,North,6,1.0,2.0,58,0.00,,---,0.00,VWS V14.01,2013-07-29 20:47:00,
2013-07-29 16:52:00,85.9,71.4,30.07,North,6,0.0,1.0,62,0.00,,---,0.00,VWS V14.01,2013-07-29 20:52:00,
2013-07-29 16:58:00,85.8,70.3,30.07,NW,316,0.0,0.0,60,0.00,,---,0.00,VWS V14.01,2013-07-29 20:58:00,
2013-07-29 17:03:00,85.4,70.4,30.07,NE,49,0.0,2.0,61,0.00,,---,0.00,VWS V14.01,2013-07-29 21:03:00,
2013-07-29 17:08:00,85.3,70.3,30.08,NE,49,0.0,1.0,61,0.00,,---,0.00,VWS V14.01,2013-07-29 21:08:00,
2013-07-29 17:13:00,85.4,70.9,30.07,NE,49,0.0,0.0,62,0.00,,---,0.00,VWS V14.01,2013-07-29 21:13:00,
2013-07-29 17:19:00,85.4,69.9,30.08,NE,48,0.0,0.0,60,0.00,,---,0.00,VWS V14.01,2013-07-29 21:19:00,
2013-07-29 17:24:00,85.1,69.7,30.07,West,260,1.0,2.0,60,0.00,,---,0.00,VWS V14.01,2013-07-29 21:24:00,
2013-07-29 17:29:00,84.6,68.7,30.07,West,271,2.0,3.0,59,0.00,,---,0.00,VWS V14.01,2013-07-29 21:29:00,
2013-07-29 17:34:00,85.0,69.6,30.07,WSW,257,0.0,1.0,60,0.00,,---,0.00,VWS V14.01,2013-07-29 21:34:00,
2013-07-29 17:39:00,85.7,70.7,30.07,ENE,63,0.0,2.0,61,0.00,,---,0.00,VWS V14.01,2013-07-29 21:39:00,
2013-07-29 17:44:00,86.3,70.3,30.07,NW,318,0.0,2.0,59,0.00,,---,0.00,VWS V14.01,2013-07-29 21:44:00,
2013-07-29 17:49:00,86.1,70.1,30.07,WNW,301,1.0,1.0,59,0.00,,---,0.00,VWS V14.01,2013-07-29 21:49:00,
2013-07-29 17:55:00,85.7,71.2,30.07,WNW,301,0.0,1.0,62,0.00,,---,0.00,VWS V14.01,2013-07-29 21:55:00,
2013-07-29 18:00:00,85.9,70.9,30.07,NW,309,2.0,2.0,61,0.00,,---,0.00,VWS V14.01,2013-07-29 22:00:00,
2013-07-29 18:05:00,85.8,71.3,30.07,NW,309,0.0,1.0,62,0.00,,---,0.00,VWS V14.01,2013-07-29 22:05:00,
2013-07-29 18:10:00,86.4,69.9,30.07,WSW,252,0.0,1.0,58,0.00,,---,0.00,VWS V14.01,2013-07-29 22:10:00,
2013-07-29 18:15:00,86.9,68.3,30.07,WSW,252,0.0,1.0,54,0.00,,---,0.00,VWS V14.01,2013-07-29 22:15:00,
2013-07-29 18:20:00,87.8,70.2,30.07,NNW,328,0.0,2.0,56,0.00,,---,0.00,VWS V14.01,2013-07-29 22:20:00,
2013-07-29 18:26:00,87.5,68.8,30.07,West,272,2.0,2.0,54,0.00,,---,0.00,VWS V14.01,2013-07-29 22:26:00,
2013-07-29 18:31:00,87.0,69.9,30.07,NW,313,0.0,1.0,57,0.00,,---,0.00,VWS V14.01,2013-07-29 22:31:00,
2013-07-29 18:36:00,86.5,69.0,30.07,West,266,0.0,1.0,56,0.00,,---,0.00,VWS V14.01,2013-07-29 22:36:00,
2013-07-29 18:42:00,86.8,70.3,30.07,West,266,0.0,0.0,58,0.00,,---,0.00,VWS V14.01,2013-07-29 22:42:00,
2013-07-29 18:47:00,87.2,70.6,30.07,West,266,0.0,1.0,58,0.00,,---,0.00,VWS V14.01,2013-07-29 22:47:00,
2013-07-29 18:52:00,86.3,69.8,30.07,NE,53,2.0,2.0,58,0.00,,---,0.00,VWS V14.01,2013-07-29 22:52:00,
2013-07-29 18:57:00,85.5,70.0,30.07,NE,42,0.0,1.0,60,0.00,,---,0.00,VWS V14.01,2013-07-29 22:57:00,
2013-07-29 19:02:00,85.3,70.8,30.07,NE,37,1.0,1.0,62,0.00,,---,0.00,VWS V14.01,2013-07-29 23:02:00,
2013-07-29 19:07:00,85.2,71.7,30.07,NE,37,0.0,1.0,64,0.00,,---,0.00,VWS V14.01,2013-07-29 23:07:00,
2013-07-29 19:13:00,85.3,71.8,30.08,NNE,13,0.0,0.0,64,0.00,,---,0.00,VWS V14.01,2013-07-29 23:13:00,
2013-07-29 19:18:00,85.6,72.0,30.08,NNE,13,0.0,0.0,64,0.00,,---,0.00,VWS V14.01,2013-07-29 23:18:00,
2013-07-29 19:24:00,85.4,71.8,30.08,NNE,13,0.0,0.0,64,0.00,,---,0.00,VWS V14.01,2013-07-29 23:24:00,
2013-07-29 19:29:00,84.4,71.4,30.08,NNE,13,0.0,0.0,65,0.00,,---,0.00,VWS V14.01,2013-07-29 23:29:00,
2013-07-29 19:34:00,83.7,71.6,30.08,NNE,14,0.0,0.0,67,0.00,,---,0.00,VWS V14.01,2013-07-29 23:34:00,
2013-07-29 19:40:00,82.9,70.4,30.09,NNE,13,1.0,1.0,66,0.00,,---,0.00,VWS V14.01,2013-07-29 23:40:00,
2013-07-29 19:45:00,82.9,70.4,30.09,NNE,19,0.0,1.0,66,0.00,,---,0.00,VWS V14.01,2013-07-29 23:45:00,
2013-07-29 19:50:00,82.8,70.3,30.10,East,96,1.0,1.0,66,0.00,,---,0.00,VWS V14.01,2013-07-29 23:50:00,
2013-07-29 19:55:00,82.5,71.7,30.10,ESE,108,1.0,2.0,70,0.00,,---,0.00,VWS V14.01,2013-07-29 23:55:00,
2013-07-29 20:00:00,82.1,70.9,30.10,ESE,115,0.0,1.0,69,0.00,,---,0.00,VWS V14.01,2013-07-30 00:00:00,
2013-07-29 20:05:00,81.9,70.3,30.11,ESE,113,0.0,1.0,68,0.00,,---,0.00,VWS V14.01,2013-07-30 00:05:00,
2013-07-29 20:10:00,81.3,71.8,30.11,NE,53,1.0,4.0,73,0.00,,---,0.00,VWS V14.01,2013-07-30 00:10:00,
2013-07-29 20:15:00,80.5,71.5,30.11,ENE,63,1.0,5.0,74,0.00,,---,0.00,VWS V14.01,2013-07-30 00:15:00,
2013-07-29 20:20:00,79.9,71.3,30.11,ENE,77,1.0,3.0,75,0.00,,---,0.00,VWS V14.01,2013-07-30 00:20:00,
2013-07-29 20:25:00,79.4,71.6,30.12,ENE,76,1.0,2.0,77,0.00,,---,0.00,VWS V14.01,2013-07-30 00:25:00,
2013-07-29 20:31:00,78.9,71.8,30.12,ENE,70,1.0,3.0,79,0.00,,---,0.00,VWS V14.01,2013-07-30 00:31:00,
2013-07-29 20:36:00,78.5,71.1,30.12,ENE,57,3.0,5.0,78,0.00,,---,0.00,VWS V14.01,2013-07-30 00:36:00,
2013-07-29 20:41:00,78.1,71.1,30.12,ENE,60,0.0,4.0,79,0.00,,---,0.00,VWS V14.01,2013-07-30 00:41:00,
2013-07-29 20:46:00,77.7,71.0,30.12,ENE,68,1.0,4.0,80,0.00,,---,0.00,VWS V14.01,2013-07-30 00:46:00,
2013-07-29 20:51:00,77.5,70.8,30.13,ENE,67,0.0,5.0,80,0.00,,---,0.00,VWS V14.01,2013-07-30 00:51:00,
2013-07-29 20:56:00,77.2,70.9,30.13,ENE,71,0.0,3.0,81,0.00,,---,0.00,VWS V14.01,2013-07-30 00:56:00,
2013-07-29 21:01:00,76.9,71.0,30.14,East,94,1.0,3.0,82,0.00,,---,0.00,VWS V14.01,2013-07-30 01:01:00,
2013-07-29 21:06:00,76.6,70.7,30.14,ENE,78,1.0,5.0,82,0.00,,---,0.00,VWS V14.01,2013-07-30 01:06:00,
2013-07-29 21:11:00,76.5,70.6,30.14,ENE,67,1.0,5.0,82,0.00,,---,0.00,VWS V14.01,2013-07-30 01:11:00,
2013-07-29 21:16:00,76.3,70.8,30.14,East,96,1.0,4.0,83,0.00,,---,0.00,VWS V14.01,2013-07-30 01:16:00,
2013-07-29 21:21:00,76.1,70.6,30.14,East,98,0.0,4.0,83,0.00,,---,0.00,VWS V14.01,2013-07-30 01:21:00,
2013-07-29 21:26:00,76.0,70.8,30.14,East,99,2.0,2.0,84,0.00,,---,0.00,VWS V14.01,2013-07-30 01:26:00,
2013-07-29 21:32:00,75.7,70.5,30.14,East,90,2.0,4.0,84,0.00,,---,0.00,VWS V14.01,2013-07-30 01:32:00,
2013-07-29 21:37:00,75.5,70.7,30.14,SE,127,5.0,5.0,85,0.00,,---,0.00,VWS V14.01,2013-07-30 01:37:00,
2013-07-29 21:42:00,75.3,70.8,30.14,SE,128,4.0,5.0,86,0.00,,---,0.00,VWS V14.01,2013-07-30 01:42:00,
2013-07-29 21:47:00,75.2,70.7,30.15,ESE,118,4.0,5.0,86,0.00,,---,0.00,VWS V14.01,2013-07-30 01:47:00,
2013-07-29 21:52:00,75.2,71.1,30.15,ESE,114,4.0,5.0,87,0.00,,---,0.00,VWS V14.01,2013-07-30 01:52:00,
2013-07-29 21:57:00,75.1,71.0,30.15,ESE,108,5.0,5.0,87,0.00,,---,0.00,VWS V14.01,2013-07-30 01:57:00,
2013-07-29 22:02:00,75.1,71.0,30.15,ESE,113,1.0,3.0,87,0.00,,---,0.00,VWS V14.01,2013-07-30 02:02:00,
2013-07-29 22:08:00,75.0,70.9,30.15,ESE,105,1.0,3.0,87,0.00,,---,0.00,VWS V14.01,2013-07-30 02:08:00,
2013-07-29 22:13:00,74.9,71.1,30.15,ESE,102,1.0,2.0,88,0.00,,---,0.00,VWS V14.01,2013-07-30 02:13:00,
2013-07-29 22:18:00,74.7,70.9,30.15,ESE,104,0.0,2.0,88,0.00,,---,0.00,VWS V14.01,2013-07-30 02:18:00,
2013-07-29 22:23:00,74.5,71.1,30.16,ESE,118,0.0,1.0,89,0.00,,---,0.00,VWS V14.01,2013-07-30 02:23:00,
2013-07-29 22:28:00,74.4,70.9,30.16,East,94,0.0,2.0,89,0.00,,---,0.00,VWS V14.01,2013-07-30 02:28:00,
2013-07-29 22:34:00,74.3,70.8,30.16,ESE,108,1.0,2.0,89,0.00,,---,0.00,VWS V14.01,2013-07-30 02:34:00,
2013-07-29 22:39:00,74.3,70.8,30.16,ESE,105,1.0,2.0,89,0.00,,---,0.00,VWS V14.01,2013-07-30 02:39:00,
2013-07-29 22:44:00,74.1,71.0,30.16,ESE,114,1.0,2.0,90,0.00,,---,0.00,VWS V14.01,2013-07-30 02:44:00,
2013-07-29 22:49:00,74.0,70.9,30.15,ESE,105,1.0,2.0,90,0.00,,---,0.00,VWS V14.01,2013-07-30 02:49:00,
2013-07-29 22:54:00,74.0,70.9,30.15,SE,124,0.0,1.0,90,0.00,,---,0.00,VWS V14.01,2013-07-30 02:54:00,
2013-07-29 22:59:00,73.8,70.7,30.15,SE,124,0.0,0.0,90,0.00,,---,0.00,VWS V14.01,2013-07-30 02:59:00,
2013-07-29 23:04:00,73.5,70.7,30.15,ESE,117,0.0,1.0,91,0.00,,---,0.00,VWS V14.01,2013-07-30 03:04:00,
2013-07-29 23:09:00,73.5,70.7,30.15,East,94,0.0,1.0,91,0.00,,---,0.00,VWS V14.01,2013-07-30 03:09:00,
2013-07-29 23:14:00,73.5,70.7,30.15,SE,125,0.0,1.0,91,0.00,,---,0.00,VWS V14.01,2013-07-30 03:14:00,
2013-07-29 23:20:00,73.5,70.7,30.15,ESE,117,0.0,2.0,91,0.00,,---,0.00,VWS V14.01,2013-07-30 03:20:00,
2013-07-29 23:25:00,73.5,70.7,30.15,ENE,76,0.0,1.0,91,0.00,,---,0.00,VWS V14.01,2013-07-30 03:25:00,
2013-07-29 23:31:00,73.1,70.6,30.15,ESE,108,1.0,1.0,92,0.00,,---,0.00,VWS V14.01,2013-07-30 03:31:00,
2013-07-29 23:36:00,73.1,70.6,30.16,ESE,114,1.0,3.0,92,0.00,,---,0.00,VWS V14.01,2013-07-30 03:36:00,
2013-07-29 23:41:00,73.0,70.5,30.15,East,79,2.0,2.0,92,0.00,,---,0.00,VWS V14.01,2013-07-30 03:41:00,
2013-07-29 23:46:00,72.9,70.4,30.15,ESE,108,1.0,3.0,92,0.00,,---,0.00,VWS V14.01,2013-07-30 03:46:00,
2013-07-29 23:52:00,72.6,70.2,30.16,SSE,149,2.0,4.0,92,0.00,,---,0.00,VWS V14.01,2013-07-30 03:52:00,
2013-07-29 23:57:00,72.5,70.4,30.15,ESE,106,2.0,4.0,93,0.00,,---,0.00,VWS V14.01,2013-07-30 03:57:00,